Simultaneous Nadir Overpasses (SNOs) Predictions

Prediction of SNOs between LANDSAT-8 and METOP-B Satellite Orbit:

Table of predicted SNOs for the next 14.0 days since TLE Epoch: 4/19/2014
Index Date (LANDSAT-8) Time (LANDSAT-8) Lat,Lon (LANDSAT-8) SZA (LANDSAT-8 ) Date (METOP-B) Time (METOP-B) Lat,Lon (METOP-B) SZA (METOP-B ) Distance(km) Time Diff (sec)
1 04/20/2014 08:33:12 -81.06, -90.09 108.51 04/20/2014 08:32:32 -81.06, -90.04 108.52 1.04 40
2 04/20/2014 09:22:37 81.09, 77.98 71.54 04/20/2014 09:23:10 81.09, 78.02 71.57 0.92 33
3 04/23/2014 04:07:29 -81.05, -23.71 109.45 04/23/2014 04:06:52 -81.06, -23.72 109.47 0.40 37
4 04/23/2014 04:56:54 81.08, 144.34 70.60 04/23/2014 04:57:30 81.08, 144.32 70.62 0.53 36
5 04/25/2014 23:41:47 -81.07, 42.86 110.34 04/25/2014 23:41:10 -81.06, 42.89 110.35 0.47 37
6 04/26/2014 00:31:12 81.09,-149.10 69.72 04/26/2014 00:31:48 81.09,-149.09 69.73 0.23 36
7 04/28/2014 19:16:09 -81.06, 109.25 111.22 04/28/2014 19:15:29 -81.07, 109.42 111.21 2.88 40
8 04/28/2014 20:05:34 81.09, -82.72 68.84 04/28/2014 20:06:07 81.10, -82.57 68.87 2.59 33
9 05/01/2014 14:50:34 -81.05, 175.47 112.10 05/01/2014 14:49:49 -81.06, 175.50 112.11 0.56 45




NCC Satellite Simultaneous Nadir Overpasses (SNOs) Prediction Service
